SCP
0 0 0 0 0 -0 -0 -0 0 0 0 -0 0 -0 0 -0 -0 0 -0 -0 -0 -0 -0 0 0 0 0 0 0 0 0 -0 -0 -0 -0 0 -0 -0 -0 -0 -0 -0 -0 -0 -0 -0 -0 -0 -0
0 0 0 0 0 -0 0 0 -0 -0 -0 0 -0 0 -0 0 -0 -0 -0 -0 -0 -0 -0 -0 0 0 0 0 0 0 -0 -0 -0 -0 -0 0 -0 -0 -0 -0 -0 -0 -0 -0 -0 -0 -0 -0 -0
0 0 0 0 0 0 -0 -0 0 -0 -0 -0 -0 0 0 0 -0 -0 -0 -0 -0 -0 0 0 0 -0 -0 -0 0 0 0 -0 -0 -0 -0 -0 -0 -0 -0 -0 -0 -0 -0 -0 -0 -0 -0 0 -0
0 0 0 0 0 -0 0 -0 0 0 -0 0 0 -0 -0 0 -0 -0 -0 -0 -0 0 0 0 -0 0 0 -0 0 0 -0 -0 -0 -0 -0 -0 -0 -0 -0 -0 -0 -0 -0 -0 -0 -0 -0 -0 -0
0 0 0 0 0 0 0 0 -0 -0 -0 -0 0 -0 -0 -0 -0 0 -0 0 -0 0 0 0 0 -0 0 -0 0 0 -0 -0 -0 -0 -0 -0 -0 -0 -0 -0 -0 -0 -0 -0 -0 0 -0 0 0
0 0 0 0 0 0 0 0 -0 -0 -0 -0 0 -0 -0 -0 -0 0 0 0 -0 -0 -0 -0 -0 -0 -0 -0 0 -0 -0 -0 -0 -0 -0 -0 -0 -0 -0 -0 0 -0 -0 0 0 0 0 0 0
0 0 0 0 -0 -0 0 0 -0 -0 -0 -0 0 -0 -0 -0 -0 0 0 -0 -0 -0 -0 -0 -0 -0 -0 -0 -0 -0 -0 -0 -0 -0 -0 -0 -0 -0 -0 0 0 0 -0 0 0 0 0 0 0
0 0 0 0 -0 -0 0 0 0 0 -0 0 0 -0 -0 -0 -0 -0 0 -0 -0 -0 -0 -0 -0 -0 -0 -0 -0 -0 0 -0 -0 -0 -0 -0 -0 -0 0 0 0 -0 0 0 0 0 0 0 0
0 0 0 0 0 0 0 0 0 0 -0 0 0 0 0 -0 -0 -0 -0 -0 -0 -0 -0 -0 -0 -0 -0 -0 -0 -0 -0 -0 -0 0 0 -0 0 0 0 0 0 0 0 0 0 0 0 0 0
0 0 0 0 0 0 0 0 -0 0 -0 0 0 0 0 -0 -0 -0 -0 -0 -0 -0 -0 -0 -0 -0 -0 -0 0 -0 -0 -0 -0 -0 0 -0 0 0 0 0 0 0 0 0 0 0 0 0 0
0 0 0 0 0 0 0 0 0 0 0 -0 -0 -0 0 -0 -0 -0 -0 -0 -0 -0 -0 -0 -0 -0 -0 -0 -0 -0 -0 -0 -0 0 0 0 0 0 0 0 0 0 0 0 0 0 0 0 0
0 0 0 0 0 0 0 0 0 0 0 0 0 0 -0 -0 -0 -0 -0 -0 -0 -0 -0 -0 -0 -0 0 -0 -0 -0 -0 -0 0 -0 0 0 0 0 0 0 0 0 0 0 0 0 0 0 0
0 0 0 0 0 0 0 0 0 0 -0 0 0 -0 0 0 -0 -0 -0 -0 -0 -0 -0 -0 -0 -0 -0 -0 -0 -0 -0 -0 -0 0 0 0 0 0 0 0 0 0 0 0 0 0 0 0 0
0 0 0 0 0 0 0 0 0 0 0 0 -0 -0 -0 0 0 0 -0 -0 -0 -0 -0 -0 -0 -0 -0 -0 -0 -0 0 -0 0 0 0 0 0 0 0 0 0 0 0 0 0 0 0 0 0
0 0 0 0 0 0 0 0 0 0 0 0 -0 -0 -0 0 -0 -0 -0 -0 -0 0 0 -0 0 -0 -0 -0 -0 -0 -0 0 0 0 0 0 0 0 0 0 0 0 0 0 0 0 0 0 0
0 0 0 0 0 0 0 0 0 0 0 0 0 0 0 0 -0 -0 0 0 0 0 0 0 -0 -0 -0 -0 -0 0 0 0 0 0 0 0 0 0 0 0 0 0 0 0 0 0 0 0 0
0 0 0 0 0 0 0 0 0 0 0 0 0 0 0 0 0 0 -0 -0 -0 -0 -0 -0 -0 -0 -0 0 0 0 0 0 0 0 0 0 0 0 0 0 0 0 0 0 0 0 0 0 0
0 0 0 0 0 0 0 0 0 0 0 0 0 0 0 0 0 0 0 0 0 0 0 0 0 0 0 0 0 0 0 0 0 0 0 0 0 0 0 0 0 0 0 0 0 0 0 0 0
0 0 0 0 0 0 0 0 0 0 0 0 0 0 0 0 0 0 0 0 0 0 0 0 0 0 0 0 0 0 0 0 0 0 0 0 0 0 0 0 0 0 0 0 0 0 0 0 0
0 0 0 0 0 0 0 0 0 0 0 0 0 0 0 0 0 0 0 0 0 0 0 0 0 0 0 0 0 0 0 0 0 0 0 0 0 0 0 0 0 0 0 0 0 0 0 0 0
0 0 0 0 0 0 0 0 0 0 0 0 0 0 0 0 0 0 0 0 0 0 0 0 0 0 0 0 0 0 0 0 0 0 0 0 0 0 0 0 0 0 0 0 0 0 0 0 0
0 0 0 0 0 0 0 0 0 0 0 0 0 0 0 0 0 0 0 0 0 0 0 0 0 0 0 0 0 0 0 0 0 0 0 0 0 0 0 0 0 0 0 0 0 0 0 0 0
0 0 0 0 0 0 0 0 0 0 0 0 0 0 0 0 0 0 0 0 0 0 0 0 0 0 0 0 0 0 0 0 0 0 0 0 0 0 0 0 0 0 0 0 0 0 0 0 0
0 0 0 0 0 0 0 0 0 0 0 0 0 0 0 0 0 0 0 0 0 0 0 0 0 0 0 0 0 0 0 0 0 0 0 0 0 0 0 0 0 0 0 0 0 0 0 0 0
0 0 0 0 0 0 0 0 0 0 0 0 0 0 0 0 0 0 0 0 0 0 0 0 0 0 0 0 0 0 0 0 0 0 0 0 0 0 0 0 0 0 0 0 0 0 0 0 0
0 0 0 0 0 0 0 0 0 0 0 0 0 0 0 0 0 0 0 0 0 0 0 0 0 0 0 0 0 0 0 0 0 0 0 0 0 0 0 0 0 0 0 0 0 0 0 0 0
0 0 0 0 0 0 0 0 0 0 0 0 0 0 0 0 0 0 0 0 0 0 0 0 0 0 0 0 0 0 0 0 0 0 0 0 0 0 0 0 0 0 0 0 0 0 0 0 0
0 0 0 0 0 0 0 0 0 0 0 0 0 0 0 0 0 0 0 0 0 0 0 0 0 0 0 0 0 0 0 0 0 0 0 0 0 0 0 0 0 0 0 0 0 0 0 0 0
0 0 0 0 0 0 0 0 0 0 0 0 0 0 0 0 0 0 0 0 0 0 0 0 0 0 0 0 0 0 0 0 0 0 0 0 0 0 0 0 0 0 0 0 0 0 0 0 0
0 0 0 0 0 0 0 0 0 0 0 0 0 0 0 0 0 0 0 0 0 0 0 0 0 0 0 0 0 0 0 0 0 0 0 0 0 0 0 0 0 0 0 0 0 0 0 0 0
Wind_Speed_500mb
9 10 8 3 12 10 10 11 11 12 12 7 10 9 19 19 14 9 26 25 32 30 25 24 21 20 24 27 31 31 26 23 15 13 18 24 23 24 27 30 31 25 23 22 22 21 21 25 29
8 7 4 12 10 12 13 16 13 13 17 14 8 1 2 19 17 22 23 30 34 31 25 24 25 22 25 28 32 30 27 20 11 12 16 25 21 21 28 33 26 21 24 27 22 21 26 29 33
4 3 21 6 7 3 13 15 21 19 13 8 6 4 6 13 14 26 23 39 36 31 24 28 27 24 25 29 32 27 24 17 10 12 17 24 20 20 23 33 23 16 22 23 26 24 24 28 30
3 9 9 15 13 12 6 18 25 22 7 5 1 11 12 10 25 15 38 39 37 31 23 28 28 25 28 28 30 24 22 13 11 13 22 21 19 17 21 22 28 14 23 25 28 28 29 29 26
6 9 10 9 10 7 4 18 23 19 14 12 6 10 11 12 14 29 40 36 35 31 26 28 25 23 26 25 26 24 19 12 14 19 20 19 17 17 21 20 18 22 26 26 31 28 21 21 18
14 10 11 14 13 10 13 18 18 15 10 10 8 10 15 15 21 34 39 35 30 28 26 25 24 23 22 22 23 22 17 16 16 17 18 18 17 17 19 19 20 25 17 23 27 19 19 14 17
21 14 14 11 18 14 14 19 19 16 13 10 5 9 13 23 25 37 39 34 30 24 23 24 22 22 21 21 21 21 17 16 14 15 17 17 16 16 17 17 23 22 13 17 18 16 9 12 14
14 12 8 13 17 10 19 21 9 15 12 10 4 8 17 31 33 38 37 34 30 26 24 25 23 23 21 20 19 18 16 14 13 13 14 14 13 13 14 13 15 18 15 11 11 11 8 9 9
7 12 16 16 14 18 28 17 11 6 12 8 7 9 21 36 39 41 38 35 32 27 25 26 23 19 18 18 18 17 15 13 10 9 10 9 10 10 10 11 9 9 8 8 6 4 4 5 5
17 17 17 8 7 24 33 18 23 14 17 13 15 14 28 38 45 46 42 40 37 31 27 25 28 25 20 20 20 18 16 13 9 7 6 6 5 5 4 5 5 6 6 9 8 6 4 4 7
13 19 12 11 8 23 30 17 18 13 15 16 24 25 31 37 42 44 45 41 41 37 33 32 31 29 27 20 21 17 16 14 13 10 7 6 4 3 2 2 3 4 4 6 4 4 3 3 3
18 4 5 10 8 19 29 25 15 19 11 11 13 27 32 37 40 42 44 42 41 39 38 40 39 37 33 27 23 19 19 18 16 15 13 10 8 7 5 5 3 1 1 2 1 2 1 1 4
16 15 10 10 12 15 17 18 6 17 15 14 16 26 31 33 35 35 36 38 39 41 40 40 43 41 40 40 33 27 23 24 21 20 18 16 14 12 12 11 9 8 7 5 4 3 3 4 6
14 22 19 13 14 8 10 9 4 10 17 17 17 22 27 32 34 34 38 39 41 40 39 38 47 46 45 43 40 37 29 24 26 25 23 21 21 19 18 17 16 15 14 12 8 7 9 10 12
34 17 12 14 11 6 4 9 17 16 13 17 22 24 26 30 33 37 37 39 40 40 39 40 47 48 48 46 44 40 36 34 30 29 29 28 27 26 24 23 23 21 17 18 21 21 20 23 26
17 18 16 14 10 4 6 14 18 11 16 18 19 27 26 29 34 34 35 36 37 37 40 42 42 46 48 47 44 41 37 35 35 34 32 32 31 31 30 29 28 28 24 25 28 26 27 32 36
15 23 30 12 12 5 13 11 19 8 8 21 21 24 27 25 27 32 36 36 37 38 37 38 40 42 44 43 41 40 38 36 33 30 30 30 30 33 35 32 31 34 30 29 30 32 33 39 42
29 30 17 25 16 10 15 23 11 12 7 12 17 21 20 22 23 26 32 36 38 39 40 39 41 44 44 46 46 45 45 42 40 36 32 29 30 32 35 35 32 30 33 34 35 39 43 47 52
26 34 23 15 5 12 25 23 21 14 12 17 20 20 18 18 14 22 28 34 41 45 45 46 44 45 44 49 52 53 53 50 47 44 40 38 38 37 37 38 35 41 40 39 45 46 51 55 58
22 31 23 8 4 8 9 24 22 24 25 23 22 21 17 15 15 18 29 36 41 44 49 50 50 47 49 46 50 53 52 52 50 49 47 47 47 44 40 44 44 45 50 50 53 56 59 61 61
20 29 23 6 13 4 7 18 22 10 12 13 15 16 16 13 12 13 21 29 39 46 49 50 50 47 45 44 43 44 50 52 51 49 47 45 46 43 46 42 50 47 52 57 60 60 66 68 68
17 7 21 21 22 10 7 7 17 19 19 14 14 12 11 7 8 10 13 19 28 36 44 53 50 47 45 42 41 49 47 45 43 41 39 36 32 31 32 34 39 44 48 53 52 54 62 62 76
10 15 19 16 9 3 11 10 9 14 16 17 17 13 11 9 10 9 9 11 13 18 22 35 48 45 41 43 40 45 45 41 38 27 29 27 29 32 34 37 39 41 43 49 53 52 54 57 62
33 26 21 11 5 9 12 14 15 13 22 20 15 13 11 12 12 14 16 14 13 11 14 22 33 38 40 37 34 28 30 32 30 27 29 26 26 31 36 36 40 42 46 50 54 55 57 61 64
24 32 10 11 10 8 4 7 14 10 9 20 21 16 15 15 17 19 20 22 23 21 19 18 19 24 26 27 28 29 24 22 23 25 27 27 27 27 29 31 34 36 37 40 43 48 53 58 62
30 33 12 14 11 13 3 16 8 15 13 12 20 20 20 19 21 23 27 31 33 33 31 30 28 25 21 18 15 13 11 9 7 7 8 10 13 15 19 22 25 29 34 39 42 48 52 56 61
24 19 7 12 4 3 12 10 13 13 14 21 26 28 27 25 26 30 33 38 43 44 45 41 39 38 35 31 27 23 19 14 10 5 2 5 9 14 18 22 26 31 36 39 45 49 53 58 63
13 22 8 5 12 10 12 9 11 21 27 26 30 37 36 30 28 30 35 42 44 43 42 39 37 35 33 29 25 22 18 14 10 8 8 10 14 18 21 24 28 30 33 38 42 47 50 54 57
9 12 9 6 5 8 8 10 3 22 34 36 42 44 42 40 35 33 35 39 39 38 36 33 31 29 27 24 21 18 15 13 10 9 10 12 16 19 24 28 33 39 43 47 53 56 59 61 63
8 16 24 12 9 1 4 5 2 8 34 42 46 47 42 38 37 38 38 37 36 34 32 29 27 24 23 21 19 15 13 12 12 12 15 18 22 28 35 40 45 49 52 55 58 61 63 66 70
Wind_Direction_500mb
58 50 17 293 235 249 123 142 101 129 134 68 78 325 34 28 9 32 138 132 141 143 156 145 142 141 132 134 128 119 122 123 103 76 73 79 84 86 87 92 77 88 101 96 102 96 91 94 95
55 43 357 259 247 190 136 121 163 98 84 118 111 154 152 77 57 116 137 137 141 139 137 147 136 128 127 131 131 124 133 125 98 70 68 82 88 89 90 86 82 67 83 84 85 92 94 96 99
57 74 257 253 278 118 136 169 115 113 118 153 141 9 23 74 91 124 151 140 139 136 144 141 125 122 117 122 134 135 134 128 98 64 73 81 89 84 77 100 98 76 79 82 87 85 91 94 90
250 219 222 244 165 65 73 160 133 135 136 169 290 104 90 63 129 134 146 144 142 142 152 132 130 126 122 130 142 130 132 128 102 91 80 84 92 90 81 89 102 82 76 79 90 73 69 86 98
225 237 221 227 137 109 134 137 159 164 150 161 184 109 87 113 123 139 148 147 149 146 154 141 130 127 123 131 142 142 138 124 92 79 82 89 92 85 78 74 95 90 75 90 84 82 79 80 101
210 268 220 196 154 142 136 152 168 162 159 138 188 130 102 143 133 150 152 151 153 157 164 151 137 128 130 136 140 140 140 116 97 86 88 89 87 88 84 79 85 94 77 84 91 87 84 63 92
238 221 226 206 150 165 147 162 172 163 160 159 117 137 122 144 150 157 154 156 159 159 162 154 145 146 145 141 140 143 136 121 109 101 93 90 88 86 82 82 96 106 100 94 99 102 79 79 93
230 239 193 221 174 140 146 160 170 172 139 135 174 150 154 158 152 158 157 162 165 167 174 157 165 161 158 151 151 149 143 129 116 100 92 90 88 88 87 86 95 135 139 147 118 120 121 85 75
214 222 206 180 193 141 159 162 164 149 137 161 159 94 127 155 154 159 163 168 172 176 181 175 166 166 168 171 169 161 158 152 141 120 101 96 91 85 81 81 76 98 142 137 140 111 90 76 53
219 222 206 157 148 158 169 182 157 168 156 172 161 116 147 155 162 167 174 176 180 185 184 194 187 176 178 183 182 182 179 174 170 162 135 107 97 97 107 115 113 109 130 127 139 133 120 82 357
199 210 115 150 137 154 160 178 164 187 184 173 182 161 164 169 172 178 182 187 186 189 192 200 199 193 194 189 194 192 192 194 198 200 195 201 207 187 214 155 168 116 71 79 117 137 143 201 193
184 98 122 140 154 163 164 152 183 194 105 122 131 171 169 180 187 190 191 191 193 195 199 202 207 205 201 204 199 209 209 213 217 223 224 229 235 240 244 257 247 230 50 201 192 211 236 319 351
208 140 110 127 147 171 143 167 129 194 165 147 151 167 180 188 194 199 204 202 203 202 203 216 217 216 216 220 217 211 218 227 231 235 235 238 242 245 245 245 245 245 243 251 245 257 269 317 327
139 138 129 137 146 149 189 159 184 175 176 188 189 175 190 196 197 199 203 208 208 210 211 213 223 222 223 227 227 227 222 235 231 240 246 246 249 252 253 254 253 253 250 246 242 265 266 278 286
142 124 144 162 169 135 226 211 215 146 147 189 201 191 189 199 202 205 207 210 213 213 211 215 227 224 227 228 232 232 234 233 238 245 250 253 252 256 258 258 259 258 255 258 254 266 269 274 287
154 173 177 160 190 156 232 227 154 161 200 208 197 201 194 201 205 208 209 213 215 214 216 224 227 223 227 231 233 237 241 243 248 249 253 255 256 258 261 261 267 267 263 264 271 274 282 281 286
194 194 207 154 198 150 222 259 113 150 163 211 203 206 203 211 212 211 214 212 213 216 216 219 229 229 228 232 235 239 240 244 248 249 251 259 260 257 259 262 260 256 261 269 272 279 282 285 287
182 216 197 204 179 203 207 250 141 159 169 208 205 205 205 208 220 224 216 217 214 214 215 218 221 228 231 233 237 241 244 246 249 252 257 259 265 263 260 262 265 263 260 268 273 273 278 280 282
187 206 201 189 128 205 224 245 246 222 214 220 225 223 212 220 210 212 217 222 224 223 221 219 218 225 229 232 235 240 246 250 254 258 262 264 265 263 264 266 268 269 270 275 276 276 278 281 284
176 199 195 119 117 220 210 256 246 235 230 233 234 234 232 220 230 233 235 231 230 229 229 225 223 222 225 236 240 243 250 256 260 266 267 266 267 269 267 265 272 271 273 274 275 279 280 281 284
189 199 178 206 149 221 291 260 225 186 222 219 225 234 243 219 211 231 238 233 230 228 226 227 224 222 223 222 245 243 245 254 257 259 263 268 269 269 269 269 272 267 274 276 277 278 282 277 287
183 205 143 143 173 209 212 248 182 177 185 193 196 181 190 175 172 207 209 219 227 231 232 229 221 219 220 221 221 242 248 253 261 267 271 274 273 272 274 272 269 269 273 276 275 280 279 281 286
116 152 141 149 163 221 190 244 171 159 198 180 173 153 162 144 142 149 173 190 209 222 231 224 217 216 218 220 221 242 243 246 251 255 274 276 280 280 282 285 283 278 277 280 279 281 283 287 285
137 124 108 107 146 239 207 236 235 184 205 161 156 148 143 127 125 126 126 125 131 149 174 189 201 207 214 218 217 227 241 242 247 247 254 264 267 276 286 285 282 280 277 279 281 283 279 278 281
163 168 154 187 200 236 68 219 239 126 148 158 159 152 137 129 119 117 120 120 114 114 118 138 167 186 194 198 204 214 221 228 239 245 254 263 272 277 281 286 289 291 291 291 289 288 287 286 285
194 189 172 186 193 188 122 224 221 112 127 153 144 144 137 134 131 123 122 119 116 112 110 113 120 127 133 143 152 160 169 181 208 238 265 278 291 294 298 301 302 303 303 301 299 297 296 296 296
176 206 61 105 57 193 193 233 190 160 164 164 149 147 145 141 135 129 124 120 118 116 113 110 111 112 112 113 113 114 115 118 119 108 34 329 319 312 307 308 307 305 304 303 302 301 301 300 301
210 147 152 223 153 219 189 246 224 196 183 169 162 159 151 145 139 135 134 129 124 120 117 117 116 115 113 112 111 107 101 96 86 59 25 357 342 335 332 329 328 326 324 322 319 316 314 310 308
152 183 218 223 230 208 172 235 107 193 183 173 170 164 158 154 152 147 144 137 132 129 125 122 121 119 117 114 109 106 96 79 57 31 11 353 343 339 338 337 333 328 325 322 318 315 313 311 310
278 216 194 205 179 339 26 259 358 234 173 171 162 162 160 158 155 154 150 145 140 137 133 131 125 126 119 111 103 92 78 58 34 17 3 354 343 336 331 328 326 324 322 321 320 317 316 315 313
Wind_Speed_850mb
9 10 8 3 12 10 10 11 11 12 12 7 10 9 19 19 14 9 26 25 32 30 25 24 21 20 24 27 31 31 26 23 15 13 18 24 23 24 27 30 31 25 23 22 22 21 21 25 29
8 7 4 12 10 12 13 16 13 13 17 14 8 1 2 19 17 22 23 30 34 31 25 24 25 22 25 28 32 30 27 20 11 12 16 25 21 21 28 33 26 21 24 27 22 21 26 29 33
4 3 21 6 7 3 13 15 21 19 13 8 6 4 6 13 14 26 23 39 36 31 24 28 27 24 25 29 32 27 24 17 10 12 17 24 20 20 23 33 23 16 22 23 26 24 24 28 30
3 9 9 15 13 12 6 18 25 22 7 5 1 11 12 10 25 15 38 39 37 31 23 28 28 25 28 28 30 24 22 13 11 13 22 21 19 17 21 22 28 14 23 25 28 28 29 29 26
6 9 10 9 10 7 4 18 23 19 14 12 6 10 11 12 14 29 40 36 35 31 26 28 25 23 26 25 26 24 19 12 14 19 20 19 17 17 21 20 18 22 26 26 31 28 21 21 18
14 10 11 14 13 10 13 18 18 15 10 10 8 10 15 15 21 34 39 35 30 28 26 25 24 23 22 22 23 22 17 16 16 17 18 18 17 17 19 19 20 25 17 23 27 19 19 14 17
21 14 14 11 18 14 14 19 19 16 13 10 5 9 13 23 25 37 39 34 30 24 23 24 22 22 21 21 21 21 17 16 14 15 17 17 16 16 17 17 23 22 13 17 18 16 9 12 14
14 12 8 13 17 10 19 21 9 15 12 10 4 8 17 31 33 38 37 34 30 26 24 25 23 23 21 20 19 18 16 14 13 13 14 14 13 13 14 13 15 18 15 11 11 11 8 9 9
7 12 16 16 14 18 28 17 11 6 12 8 7 9 21 36 39 41 38 35 32 27 25 26 23 19 18 18 18 17 15 13 10 9 10 9 10 10 10 11 9 9 8 8 6 4 4 5 5
17 17 17 8 7 24 33 18 23 14 17 13 15 14 28 38 45 46 42 40 37 31 27 25 28 25 20 20 20 18 16 13 9 7 6 6 5 5 4 5 5 6 6 9 8 6 4 4 7
13 19 12 11 8 23 30 17 18 13 15 16 24 25 31 37 42 44 45 41 41 37 33 32 31 29 27 20 21 17 16 14 13 10 7 6 4 3 2 2 3 4 4 6 4 4 3 3 3
18 4 5 10 8 19 29 25 15 19 11 11 13 27 32 37 40 42 44 42 41 39 38 40 39 37 33 27 23 19 19 18 16 15 13 10 8 7 5 5 3 1 1 2 1 2 1 1 4
16 15 10 10 12 15 17 18 6 17 15 14 16 26 31 33 35 35 36 38 39 41 40 40 43 41 40 40 33 27 23 24 21 20 18 16 14 12 12 11 9 8 7 5 4 3 3 4 6
14 22 19 13 14 8 10 9 4 10 17 17 17 22 27 32 34 34 38 39 41 40 39 38 47 46 45 43 40 37 29 24 26 25 23 21 21 19 18 17 16 15 14 12 8 7 9 10 12
34 17 12 14 11 6 4 9 17 16 13 17 22 24 26 30 33 37 37 39 40 40 39 40 47 48 48 46 44 40 36 34 30 29 29 28 27 26 24 23 23 21 17 18 21 21 20 23 26
17 18 16 14 10 4 6 14 18 11 16 18 19 27 26 29 34 34 35 36 37 37 40 42 42 46 48 47 44 41 37 35 35 34 32 32 31 31 30 29 28 28 24 25 28 26 27 32 36
15 23 30 12 12 5 13 11 19 8 8 21 21 24 27 25 27 32 36 36 37 38 37 38 40 42 44 43 41 40 38 36 33 30 30 30 30 33 35 32 31 34 30 29 30 32 33 39 42
29 30 17 25 16 10 15 23 11 12 7 12 17 21 20 22 23 26 32 36 38 39 40 39 41 44 44 46 46 45 45 42 40 36 32 29 30 32 35 35 32 30 33 34 35 39 43 47 52
26 34 23 15 5 12 25 23 21 14 12 17 20 20 18 18 14 22 28 34 41 45 45 46 44 45 44 49 52 53 53 50 47 44 40 38 38 37 37 38 35 41 40 39 45 46 51 55 58
22 31 23 8 4 8 9 24 22 24 25 23 22 21 17 15 15 18 29 36 41 44 49 50 50 47 49 46 50 53 52 52 50 49 47 47 47 44 40 44 44 45 50 50 53 56 59 61 61
20 29 23 6 13 4 7 18 22 10 12 13 15 16 16 13 12 13 21 29 39 46 49 50 50 47 45 44 43 44 50 52 51 49 47 45 46 43 46 42 50 47 52 57 60 60 66 68 68
17 7 21 21 22 10 7 7 17 19 19 14 14 12 11 7 8 10 13 19 28 36 44 53 50 47 45 42 41 49 47 45 43 41 39 36 32 31 32 34 39 44 48 53 52 54 62 62 76
10 15 19 16 9 3 11 10 9 14 16 17 17 13 11 9 10 9 9 11 13 18 22 35 48 45 41 43 40 45 45 41 38 27 29 27 29 32 34 37 39 41 43 49 53 52 54 57 62
33 26 21 11 5 9 12 14 15 13 22 20 15 13 11 12 12 14 16 14 13 11 14 22 33 38 40 37 34 28 30 32 30 27 29 26 26 31 36 36 40 42 46 50 54 55 57 61 64
24 32 10 11 10 8 4 7 14 10 9 20 21 16 15 15 17 19 20 22 23 21 19 18 19 24 26 27 28 29 24 22 23 25 27 27 27 27 29 31 34 36 37 40 43 48 53 58 62
30 33 12 14 11 13 3 16 8 15 13 12 20 20 20 19 21 23 27 31 33 33 31 30 28 25 21 18 15 13 11 9 7 7 8 10 13 15 19 22 25 29 34 39 42 48 52 56 61
24 19 7 12 4 3 12 10 13 13 14 21 26 28 27 25 26 30 33 38 43 44 45 41 39 38 35 31 27 23 19 14 10 5 2 5 9 14 18 22 26 31 36 39 45 49 53 58 63
13 22 8 5 12 10 12 9 11 21 27 26 30 37 36 30 28 30 35 42 44 43 42 39 37 35 33 29 25 22 18 14 10 8 8 10 14 18 21 24 28 30 33 38 42 47 50 54 57
9 12 9 6 5 8 8 10 3 22 34 36 42 44 42 40 35 33 35 39 39 38 36 33 31 29 27 24 21 18 15 13 10 9 10 12 16 19 24 28 33 39 43 47 53 56 59 61 63
8 16 24 12 9 1 4 5 2 8 34 42 46 47 42 38 37 38 38 37 36 34 32 29 27 24 23 21 19 15 13 12 12 12 15 18 22 28 35 40 45 49 52 55 58 61 63 66 70
Wind_Direction_850mb
58 50 17 293 235 249 123 142 101 129 134 68 78 325 34 28 9 32 138 132 141 143 156 145 142 141 132 134 128 119 122 123 103 76 73 79 84 86 87 92 77 88 101 96 102 96 91 94 95
55 43 357 259 247 190 136 121 163 98 84 118 111 154 152 77 57 116 137 137 141 139 137 147 136 128 127 131 131 124 133 125 98 70 68 82 88 89 90 86 82 67 83 84 85 92 94 96 99
57 74 257 253 278 118 136 169 115 113 118 153 141 9 23 74 91 124 151 140 139 136 144 141 125 122 117 122 134 135 134 128 98 64 73 81 89 84 77 100 98 76 79 82 87 85 91 94 90
250 219 222 244 165 65 73 160 133 135 136 169 290 104 90 63 129 134 146 144 142 142 152 132 130 126 122 130 142 130 132 128 102 91 80 84 92 90 81 89 102 82 76 79 90 73 69 86 98
225 237 221 227 137 109 134 137 159 164 150 161 184 109 87 113 123 139 148 147 149 146 154 141 130 127 123 131 142 142 138 124 92 79 82 89 92 85 78 74 95 90 75 90 84 82 79 80 101
210 268 220 196 154 142 136 152 168 162 159 138 188 130 102 143 133 150 152 151 153 157 164 151 137 128 130 136 140 140 140 116 97 86 88 89 87 88 84 79 85 94 77 84 91 87 84 63 92
238 221 226 206 150 165 147 162 172 163 160 159 117 137 122 144 150 157 154 156 159 159 162 154 145 146 145 141 140 143 136 121 109 101 93 90 88 86 82 82 96 106 100 94 99 102 79 79 93
230 239 193 221 174 140 146 160 170 172 139 135 174 150 154 158 152 158 157 162 165 167 174 157 165 161 158 151 151 149 143 129 116 100 92 90 88 88 87 86 95 135 139 147 118 120 121 85 75
214 222 206 180 193 141 159 162 164 149 137 161 159 94 127 155 154 159 163 168 172 176 181 175 166 166 168 171 169 161 158 152 141 120 101 96 91 85 81 81 76 98 142 137 140 111 90 76 53
219 222 206 157 148 158 169 182 157 168 156 172 161 116 147 155 162 167 174 176 180 185 184 194 187 176 178 183 182 182 179 174 170 162 135 107 97 97 107 115 113 109 130 127 139 133 120 82 357
199 210 115 150 137 154 160 178 164 187 184 173 182 161 164 169 172 178 182 187 186 189 192 200 199 193 194 189 194 192 192 194 198 200 195 201 207 187 214 155 168 116 71 79 117 137 143 201 193
184 98 122 140 154 163 164 152 183 194 105 122 131 171 169 180 187 190 191 191 193 195 199 202 207 205 201 204 199 209 209 213 217 223 224 229 235 240 244 257 247 230 50 201 192 211 236 319 351
208 140 110 127 147 171 143 167 129 194 165 147 151 167 180 188 194 199 204 202 203 202 203 216 217 216 216 220 217 211 218 227 231 235 235 238 242 245 245 245 245 245 243 251 245 257 269 317 327
139 138 129 137 146 149 189 159 184 175 176 188 189 175 190 196 197 199 203 208 208 210 211 213 223 222 223 227 227 227 222 235 231 240 246 246 249 252 253 254 253 253 250 246 242 265 266 278 286
142 124 144 162 169 135 226 211 215 146 147 189 201 191 189 199 202 205 207 210 213 213 211 215 227 224 227 228 232 232 234 233 238 245 250 253 252 256 258 258 259 258 255 258 254 266 269 274 287
154 173 177 160 190 156 232 227 154 161 200 208 197 201 194 201 205 208 209 213 215 214 216 224 227 223 227 231 233 237 241 243 248 249 253 255 256 258 261 261 267 267 263 264 271 274 282 281 286
194 194 207 154 198 150 222 259 113 150 163 211 203 206 203 211 212 211 214 212 213 216 216 219 229 229 228 232 235 239 240 244 248 249 251 259 260 257 259 262 260 256 261 269 272 279 282 285 287
182 216 197 204 179 203 207 250 141 159 169 208 205 205 205 208 220 224 216 217 214 214 215 218 221 228 231 233 237 241 244 246 249 252 257 259 265 263 260 262 265 263 260 268 273 273 278 280 282
187 206 201 189 128 205 224 245 246 222 214 220 225 223 212 220 210 212 217 222 224 223 221 219 218 225 229 232 235 240 246 250 254 258 262 264 265 263 264 266 268 269 270 275 276 276 278 281 284
176 199 195 119 117 220 210 256 246 235 230 233 234 234 232 220 230 233 235 231 230 229 229 225 223 222 225 236 240 243 250 256 260 266 267 266 267 269 267 265 272 271 273 274 275 279 280 281 284
189 199 178 206 149 221 291 260 225 186 222 219 225 234 243 219 211 231 238 233 230 228 226 227 224 222 223 222 245 243 245 254 257 259 263 268 269 269 269 269 272 267 274 276 277 278 282 277 287
183 205 143 143 173 209 212 248 182 177 185 193 196 181 190 175 172 207 209 219 227 231 232 229 221 219 220 221 221 242 248 253 261 267 271 274 273 272 274 272 269 269 273 276 275 280 279 281 286
116 152 141 149 163 221 190 244 171 159 198 180 173 153 162 144 142 149 173 190 209 222 231 224 217 216 218 220 221 242 243 246 251 255 274 276 280 280 282 285 283 278 277 280 279 281 283 287 285
137 124 108 107 146 239 207 236 235 184 205 161 156 148 143 127 125 126 126 125 131 149 174 189 201 207 214 218 217 227 241 242 247 247 254 264 267 276 286 285 282 280 277 279 281 283 279 278 281
163 168 154 187 200 236 68 219 239 126 148 158 159 152 137 129 119 117 120 120 114 114 118 138 167 186 194 198 204 214 221 228 239 245 254 263 272 277 281 286 289 291 291 291 289 288 287 286 285
194 189 172 186 193 188 122 224 221 112 127 153 144 144 137 134 131 123 122 119 116 112 110 113 120 127 133 143 152 160 169 181 208 238 265 278 291 294 298 301 302 303 303 301 299 297 296 296 296
176 206 61 105 57 193 193 233 190 160 164 164 149 147 145 141 135 129 124 120 118 116 113 110 111 112 112 113 113 114 115 118 119 108 34 329 319 312 307 308 307 305 304 303 302 301 301 300 301
210 147 152 223 153 219 189 246 224 196 183 169 162 159 151 145 139 135 134 129 124 120 117 117 116 115 113 112 111 107 101 96 86 59 25 357 342 335 332 329 328 326 324 322 319 316 314 310 308
152 183 218 223 230 208 172 235 107 193 183 173 170 164 158 154 152 147 144 137 132 129 125 122 121 119 117 114 109 106 96 79 57 31 11 353 343 339 338 337 333 328 325 322 318 315 313 311 310
278 216 194 205 179 339 26 259 358 234 173 171 162 162 160 158 155 154 150 145 140 137 133 131 125 126 119 111 103 92 78 58 34 17 3 354 343 336 331 328 326 324 322 321 320 317 316 315 313